STARLINK-32274, 60922

Orbit data source: Space-Track

STARLINK-32274, 60922 is a payload satellite owned by SpaceX/Seattle (US) in LEO that was launched on Sat, 31 Aug 2024 UTC via an FALCON 9 launch vehicle from the Air Force Eastern Test Range (AFETR). Payload-class satellites include a variety of spacecraft equipped with specific instruments for various scientific and technological missions. These include communications satellites like Starlink; space stations such as the ISS; scientific satellites like the Hubble; Earth observation satellites from companies like Planet Labs, Umbra, and HawkEye 360; GPS; miniature CubeSats for education and research; and military/defense satellites.

Loading next visibility...
Identifier
60922, 2024-154V
Orbit
LEO
Country
Flag of USUS
Related business
Manufacturer
SpaceX/Seattle
Mission
Operational Commercial Communications
Bus & Motor
STARLINK V2M, Unknown motor
Mass
730 kg wet, ~700 kg dry
Launch date (UTC)
2024-08-31 (2 years ago)
Launch vehicle
FALCON 9
Launch site
Air Force Eastern Test Range (AFETR)
Object type
Payload
Rocket body
Debris
Shape & HBR
Box + 2 Pan, 17.7 m
Radar Cross Section
33.884 m², Large (>1 m²)

Expand to show TLE details & history
Last TLE update: 11 hours ago

TLE from 11 hours ago
0 STARLINK-32274
1 60922U 24154V   26130.01933573 -.00001190  00000-0 -28053-4 0  9993
2 60922  53.1623 359.0520 0001273  96.2715 263.8431 15.30190039 95730
Epoch: 2026-05-10T00:27Z
TLE epoch observation values (Epoch: 2026-05-10T00:27:50.607Z)
Latitude
0.00001°
Longitude
124.26272°
Altitude
476.238 km
Speed
7.629 km/s
True Right ascension
23h 56m 12s
True Declination
0° 00' 00"
Sunlit
Object was in daylight at epoch
Visualization orbit readout
Latitude
Unknown
Longitude
Unknown
Altitude
Unknown
Speed
Unknown
Apparent Right ascension
Unknown
Apparent Declination
Unknown
Sunlit
N/A
Visualization observer readout
Local Sidereal Time
19:50:56
Azimuth
Unknown
Elevation
Unknown
Doppler factor
Unknown
Orbital elements
Apogee altitude
476.373 km
Perigee altitude
474.628 km
Semi-major axis
6,853.638 km
Eccentricity
0.00013
Inclination
53.1623°
RAAN
359.052°
Arg. of periapsis
96.2715°
True anomaly
263.8286°
Mean anomaly
263.8431°
Eccentric anomaly
263.83585°
Mean motion
3.82526 °/min
Orbital period
94.11 mins
BSTAR
-0.000028053
Loading maneuver chart data...
Computing Atmospheric mass density...
Loading historical data...
Loading historical data...
Loading historical data...
Loading historical data...
Loading historical data...
Loading historical data...
Loading historical data...

Documentation

Showing up to 5 results
|